Weather History for KGTF - January, 2013

Change the Weather History Date:

Wednesday, January 2, 2013

  Actual Average Record
Temperature  
Mean Temperature 19 °F 24 °F  
Max Temperature 27 °F 35 °F 65 °F (1918)
Min Temperature 11 °F 14 °F -32 °F (1950)
Degree Days  
Heating Degree Days 46 41  
Month to date heating degree days 86 82  
Since 1 July heating degree days 2909 3299  
Cooling Degree Days 0 0  
Month to date cooling degree days 0 0  
Year to date cooling degree days 0 0  
Moisture  
Dew Point 8 °F    
Average Humidity 57    
Maximum Humidity 67    
Minimum Humidity 46    
Precipitation  
Precipitation 0.00 in 0.01 in 0.72 in (1955)
Month to date precipitation T 0.03  
Year to date precipitation T 0.03  
Snow  
Snow 0.00 in 0.30 in 6.20 in (2009)
Month to date snowfall T 0.6  
Since 1 July snowfall 32.3 23.8  
Snow Depth 3.00 in    
Sea Level Pressure  
Sea Level Pressure 30.44 in    
Wind  
Wind Speed 15 mph (SSW)    
Max Wind Speed 25 mph    
Max Gust Speed 30 mph    
Visibility 10 miles    
Events      
T = Trace of Precipitation, MM = Missing Value Source: NWS Daily Summary

Daily Weather History Graph

Daily Weather History Graph

Search for Another Location

Airport or City:

Trip Planner

Search our weather history database for the weather conditions in past years. The results will help you decide how hot, cold, wet, or windy it might be!

Date:

Astronomy

Jan. 02, 2013 Rise Set
Actual Time 8:13 AM MST 4:46 PM MST
Civil Twilight 7:37 AM MST 5:22 PM MST
Nautical Twilight 6:58 AM MST 6:01 PM MST
Astronomical Twilight 6:21 AM MST 6:38 PM MST
Moon 10:48 PM MST (1/2) 10:33 AM MST (1/2)
Length of Visible Light 9h 44m
Length of Day
8h 33m
Waning Gibbous, 74% of the Moon is Illuminated
Jan 2
Waning Gibbous
Jan 4
Last Quarter
Jan 11
New
Jan 18
First Quarter
Jan 26
Full

Hourly Weather History & Observations

Time (MST) Temp. Windchill Dew Point Humidity Pressure Visibility Wind Dir Wind Speed Gust Speed Precip Events Conditions
12:53 AM 19.0 °F 4.5 °F 8.1 °F 62% 30.42 in 10.0 mi SSW 16.1 mph - N/A   Clear
1:53 AM 18.0 °F 3.6 °F 7.0 °F 62% 30.40 in 10.0 mi SW 15.0 mph - N/A   Clear
2:53 AM 17.1 °F 3.0 °F 7.0 °F 65% 30.42 in 10.0 mi SSW 13.8 mph - N/A   Clear
3:53 AM 12.9 °F -0.9 °F 3.9 °F 67% 30.44 in 10.0 mi SSW 11.5 mph - N/A   Clear
4:53 AM 14.0 °F 1.2 °F 5.0 °F 67% 30.25 in 10.0 mi SSW 10.4 mph - N/A   Clear
5:53 AM 12.9 °F -0.9 °F 3.0 °F 65% 30.47 in 10.0 mi SW 11.5 mph - N/A   Clear
6:53 AM 14.0 °F -0.8 °F 3.9 °F 64% 30.49 in 10.0 mi SSW 13.8 mph - N/A   Clear
7:53 AM 16.0 °F 2.3 °F 3.9 °F 59% 30.51 in 10.0 mi SSW 12.7 mph - N/A   Clear
8:53 AM 19.0 °F 5.6 °F 6.1 °F 57% 30.51 in 10.0 mi SSW 13.8 mph - N/A   Clear
9:53 AM 19.0 °F 5.0 °F 7.0 °F 59% 30.54 in 10.0 mi SSW 15.0 mph - N/A   Clear
10:53 AM 21.0 °F 8.6 °F 8.1 °F 57% 30.53 in 10.0 mi SW 12.7 mph - N/A   Clear
11:53 AM 23.0 °F 10.6 °F 10.0 °F 58% 30.52 in 10.0 mi SSW 13.8 mph - N/A   Clear
12:53 PM 25.0 °F 13.1 °F 10.9 °F 55% 30.49 in 10.0 mi SSW 13.8 mph - N/A   Clear
1:53 PM 26.1 °F 14.0 °F 12.0 °F 55% 30.48 in 10.0 mi SSW 15.0 mph - N/A   Clear
2:53 PM 26.1 °F 14.5 °F 10.9 °F 53% 30.48 in 10.0 mi SSW 13.8 mph - N/A   Clear
3:53 PM 24.8 °F 14.6 °F 10.4 °F 54% 30.29 in 10.0 mi SSW 10.4 mph - N/A   Clear
4:53 PM 23.0 °F 10.1 °F 9.0 °F 55% 30.48 in 10.0 mi SSW 15.0 mph - N/A   Clear
5:53 PM 25.0 °F 11.3 °F 10.0 °F 53% 30.47 in 10.0 mi SSW 18.4 mph - N/A   Clear
6:53 PM 24.1 °F 10.6 °F 9.0 °F 53% 30.46 in 10.0 mi SSW 17.3 mph - N/A   Clear
7:53 PM 24.1 °F 11.0 °F 10.0 °F 55% 30.44 in 10.0 mi SSW 16.1 mph - N/A   Clear
8:53 PM 24.1 °F 10.6 °F 10.0 °F 55% 30.41 in 10.0 mi SSW 17.3 mph - N/A   Clear
9:53 PM 27.0 °F 12.5 °F 9.0 °F 47% 30.38 in 10.0 mi SSW 23.0 mph 28.8 mph N/A   Clear
10:53 PM 25.0 °F 11.7 °F 9.0 °F 51% 30.37 in 10.0 mi SSW 17.3 mph - N/A   Clear
11:53 PM 27.0 °F 12.5 °F 10.0 °F 49% 30.34 in 10.0 mi SSW 23.0 mph - N/A   Clear